FW9028 Weather Reports


time (UTC)temp
C
wind
direction
speed
KPH
gust
KPH
rain 1hr
cm
rain 24hr
cm
rain mn
cm
humidity
%
barometer
mb
20260505095541 30 91 9.7 27.4 0.00 0.00 0.00 70 1009.3
20260505094541 31 97 9.7 24.1 0.00 0.00 0.00 69 1009.0
20260505094041 31 87 12.9 24.1 0.00 0.00 0.00 69 1009.1
20260505093541 31 114 6.4 20.9 0.00 0.00 0.00 68 1008.8
20260505093041 31 104 4.8 20.9 0.00 0.00 0.00 68 1008.8
20260505092541 31 114 9.7 22.5 0.00 0.00 0.00 68 1008.8
20260505092041 31 160 8.0 24.1 0.00 0.00 0.00 68 1008.8
20260505091541 31 56 11.3 25.7 0.00 0.00 0.00 68 1008.5
20260505090541 31 175 4.8 20.9 0.00 0.00 0.00 67 1008.5
20260505090042 31 137 4.8 22.5 0.00 0.00 0.00 67 1008.4
20260505085542 31 107 17.7 22.5 0.00 0.00 0.00 66 1008.5
20260505085041 31 129 6.4 22.5 0.00 0.00 0.00 67 1008.3
20260505084540 31 109 11.3 20.9 0.00 0.00 0.00 66 1008.5
20260505084041 32 118 6.4 16.1 0.00 0.00 0.00 66 1008.5
20260505083541 32 126 12.9 24.1 0.00 0.00 0.00 66 1008.5
20260505083041 32 100 8.0 24.1 0.00 0.00 0.00 65 1008.4
20260505082541 32 125 14.5 27.4 0.00 0.00 0.00 65 1008.5
20260505082041 32 136 8.0 27.4 0.00 0.00 0.00 64 1008.6
20260505081041 32 104 22.5 30.6 0.00 0.00 0.00 64 1008.5
20260505080541 32 131 11.3 30.6 0.00 0.00 0.00 63 1008.3
20260505080042 32 88 8.0 30.6 0.00 0.00 0.00 63 1008.4
20260505075541 32 107 6.4 30.6 0.00 0.00 0.00 63 1008.2
20260505074541 33 140 8.0 27.4 0.00 0.00 0.00 63 1008.4
20260505074041 33 99 9.7 25.7 0.00 0.00 0.00 60 1008.1
20260505073541 33 82 6.4 27.4 0.00 0.00 0.00 59 1008.2
20260505073041 33 120 16.1 27.4 0.00 0.00 0.00 57 1008.2
20260505072541 33 85 3.2 29.0 0.00 0.00 0.00 57 1008.1
20260505072041 33 112 8.0 29.0 0.00 0.00 0.00 59 1008.2
20260505071541 33 133 12.9 25.7 0.00 0.00 0.00 59 1008.3
20260505071041 33 80 6.4 22.5 0.00 0.00 0.00 59 1008.5
20260505070542 33 108 8.0 24.1 0.00 0.00 0.00 60 1008.3
20260505070041 33 144 9.7 24.1 0.00 0.00 0.00 59 1008.3
20260505065541 33 83 8.0 22.5 0.00 0.00 0.00 60 1008.4
20260505065041 33 91 17.7 22.5 0.00 0.00 0.00 60 1008.4
20260505064542 33 96 9.7 22.5 0.00 0.00 0.00 59 1008.5
20260505064041 33 104 8.0 24.1 0.00 0.00 0.00 58 1008.4
20260505063541 33 140 11.3 27.4 0.00 0.00 0.00 60 1008.6
20260505063041 32 82 6.4 27.4 0.00 0.00 0.00 62 1008.6
20260505062541 33 84 8.0 27.4 0.00 0.00 0.00 61 1008.6
20260505062041 33 116 11.3 27.4 0.00 0.00 0.00 61 1008.6
20260505061541 33 126 11.3 22.5 0.00 0.00 0.00 61 1008.7
20260505060541 32 133 9.7 32.2 0.00 0.00 0.00 62 1008.8
20260505060041 33 126 17.7 30.6 0.00 0.00 0.00 61 1008.8
20260505055041 33 103 17.7 27.4 0.00 0.00 0.00 62 1009.0
20260505054541 32 102 12.9 27.4 0.00 0.00 0.00 62 1009.0
20260505054041 32 117 17.7 33.8 0.00 0.00 0.00 62 1009.3
20260505053540 32 104 22.5 33.8 0.00 0.00 0.00 62 1009.2
20260505053041 33 115 12.9 29.0 0.00 0.00 0.00 60 1009.3
20260505052541 33 97 12.9 25.7 0.00 0.00 0.00 61 1009.3
20260505052041 33 94 11.3 22.5 0.00 0.00 0.00 61 1009.3
20260505051541 33 98 16.1 27.4 0.00 0.00 0.00 61 1009.5
20260505051041 32 160 9.7 29.0 0.00 0.00 0.00 62 1009.4
20260505050541 32 101 22.5 29.0 0.00 0.00 0.00 63 1009.4
20260505041541 32 133 6.4 30.6 0.00 0.00 0.00 64 1010.2
20260505041041 32 84 17.7 30.6 0.00 0.00 0.00 64 1010.2
20260505040541 32 101 12.9 30.6 0.00 0.00 0.00 62 1010.6
20260505035541 32 118 6.4 29.0 0.00 0.00 0.00 61 1010.1
20260505035041 32 148 6.4 29.0 0.00 0.00 0.00 62 1010.4
20260505034541 32 110 17.7 25.7 0.00 0.00 0.00 61 1010.4
20260505034041 32 70 11.3 30.6 0.00 0.00 0.00 61 1010.5
20260505033541 32 94 12.9 30.6 0.00 0.00 0.00 61 1010.4
20260505033041 32 114 20.9 24.1 0.00 0.00 0.00 59 1010.6
20260505032541 32 120 9.7 22.5 0.00 0.00 0.00 61 1010.8
20260505032041 32 111 6.4 24.1 0.00 0.00 0.00 62 1010.8
20260505031541 32 138 19.3 29.0 0.00 0.00 0.00 61 1010.8
20260505031041 32 97 14.5 37.0 0.00 0.00 0.00 62 1010.8
20260505030541 32 102 6.4 37.0 0.00 0.00 0.00 63 1010.8
20260505030041 32 104 9.7 24.1 0.00 0.00 0.00 61 1010.8
20260505025541 32 101 9.7 25.7 0.00 0.00 0.00 61 1010.8
20260505025041 32 140 8.0 29.0 0.00 0.00 0.00 63 1011.1
20260505024541 32 92 17.7 29.0 0.00 0.00 0.00 61 1010.9
20260505024041 32 64 9.7 27.4 0.00 0.00 0.00 63 1010.9
20260505023041 31 103 11.3 25.7 0.00 0.00 0.00 66 1011.2
20260505022541 31 101 14.5 25.7 0.00 0.00 0.00 66 1011.1
20260505021541 31 151 8.0 24.1 0.00 0.00 0.00 67 1011.2
20260505021041 31 99 16.1 27.4 0.00 0.00 0.00 66 1011.4
20260505020041 31 101 19.3 25.7 0.00 0.00 0.00 65 1011.4
20260505015541 31 87 9.7 27.4 0.00 0.00 0.00 64 1011.4
20260505015041 31 98 9.7 29.0 0.00 0.00 0.00 64 1011.5
20260505014541 31 127 22.5 29.0 0.00 0.00 0.00 64 1011.5
20260505014041 31 101 22.5 29.0 0.00 0.00 0.00 63 1011.7
20260505013041 31 92 14.5 20.9 0.00 0.00 0.00 66 1011.6
20260505012541 31 82 6.4 16.1 0.00 0.00 0.00 66 1011.7
20260505012042 31 104 12.9 14.5 0.00 0.00 0.00 65 1011.7
20260505011542 31 110 4.8 14.5 0.00 0.00 0.00 67 1011.4
20260505011041 31 91 14.5 22.5 0.00 0.00 0.00 66 1011.6
20260505010041 30 128 4.8 19.3 0.00 0.00 0.00 68 1011.5
20260505005541 30 145 4.8 19.3 0.00 0.00 0.00 68 1011.3
20260505004542 30 75 3.2 17.7 0.00 0.00 0.00 69 1011.4
20260505004041 31 108 12.9 16.1 0.00 0.00 0.00 67 1011.5
20260505003541 30 120 9.7 16.1 0.00 0.00 0.00 69 1011.7
20260505002541 30 39 6.4 17.7 0.00 0.00 0.00 69 1011.7
20260505001541 30 96 12.9 22.5 0.00 0.00 0.00 70 1011.5
20260505001041 30 96 16.1 22.5 0.00 0.00 0.00 70 1011.5
20260505000542 30 101 9.7 19.3 0.00 0.00 0.00 70 1011.6
20260505000041 30 96 9.7 17.7 0.00 0.00 0.00 70 1011.7
20260504235042 30 117 8.0 19.3 0.00 0.00 0.00 70 1011.7
20260504234541 30 98 3.2 19.3 0.00 0.00 0.00 70 1011.7
20260504234041 30 97 6.4 16.1 0.00 0.00 0.00 70 1011.8
20260504233041 30 167 4.8 16.1 0.00 0.00 0.00 71 1011.8
20260504232541 30 103 12.9 16.1 0.00 0.00 0.00 71 1012.0
20260504232042 29 89 6.4 20.9 0.00 0.00 0.00 71 1011.7
20260504231541 29 101 19.3 20.9 0.00 0.00 0.00 71 1011.5
20260504231041 29 76 8.0 17.7 0.00 0.00 0.00 71 1011.6
20260504230041 29 111 14.5 16.1 0.00 0.00 0.00 71 1011.2
20260504225041 28 105 3.2 14.5 0.00 0.00 0.00 72 1011.4
20260504224541 28 140 6.4 14.5 0.00 0.00 0.00 73 1011.3
20260504224041 28 70 6.4 14.5 0.00 0.00 0.00 72 1011.3
20260504223543 28 75 4.8 19.3 0.00 0.00 0.00 73 1011.2
20260504223041 28 103 11.3 19.3 0.00 0.00 0.00 73 1011.1
20260504222541 28 114 12.9 14.5 0.00 0.00 0.00 73 1011.0
20260504222041 28 101 4.8 14.5 0.00 0.00 0.00 74 1011.1
20260504221542 28 121 4.8 14.5 0.00 0.00 0.00 75 1011.1
20260504221041 28 101 6.4 12.9 0.00 0.00 0.00 75 1010.9
20260504220541 28 139 3.2 14.5 0.00 0.00 0.00 75 1011.0
20260504215541 27 102 9.7 17.7 0.00 0.00 0.00 76 1011.0
20260504215042 27 118 3.2 12.9 0.00 0.00 0.00 77 1011.1
20260504214541 27 110 3.2 9.7 0.00 0.00 0.00 77 1010.9
20260504214041 27 107 6.4 11.3 0.00 0.00 0.00 77 1010.9
20260504213041 27 115 4.8 12.9 0.00 0.00 0.00 77 1011.0
20260504212541 27 145 6.4 12.9 0.00 0.00 0.00 76 1010.9
20260504212041 27 125 6.4 12.9 0.00 0.00 0.00 77 1010.8
20260504211541 27 103 3.2 14.5 0.00 0.00 0.00 77 1010.9
20260504211041 27 74 3.2 16.1 0.00 0.00 0.00 76 1010.6
20260504210541 27 127 6.4 17.7 0.00 0.00 0.00 76 1010.7
20260504210041 27 72 4.8 17.7 0.00 0.00 0.00 76 1010.7
20260504205541 27 163 4.8 16.1 0.00 0.00 0.00 76 1010.7
20260504205041 27 123 6.4 16.1 0.00 0.00 0.00 76 1010.5
20260504204041 27 110 6.4 20.9 0.00 0.00 0.00 76 1010.7
20260504203542 27 139 6.4 20.9 0.00 0.00 0.00 76 1010.6
20260504202541 27 107 14.5 16.1 0.00 0.00 0.00 77 1010.6
20260504202041 27 103 12.9 17.7 0.00 0.00 0.00 76 1010.3
20260504201541 27 140 6.4 20.9 0.00 0.00 0.00 76 1010.3
20260504201042 27 117 3.2 20.9 0.00 0.00 0.00 76 1010.2
20260504200541 27 92 12.9 14.5 0.00 0.00 0.00 76 1010.3
20260504195541 27 134 1.6 14.5 0.00 0.00 0.00 76 1010.3
20260504195042 27 180 3.2 14.5 0.00 0.00 0.00 76 1010.3
20260504194541 27 134 8.0 14.5 0.00 0.00 0.00 76 1010.3
20260504194041 27 143 3.2 16.1 0.00 0.00 0.00 76 1010.6
20260504193541 27 96 14.5 16.1 0.00 0.00 0.00 76 1010.3
20260504192541 27 157 3.2 14.5 0.00 0.00 0.00 76 1010.3
20260504192041 27 137 4.8 14.5 0.00 0.00 0.00 76 1010.3
20260504191540 27 84 8.0 14.5 0.00 0.00 0.00 76 1010.2
20260504191041 27 155 4.8 12.9 0.00 0.00 0.00 76 1010.4
20260504190041 27 138 3.2 19.3 0.00 0.00 0.00 75 1010.3
20260504185541 27 127 4.8 19.3 0.00 0.00 0.00 75 1010.4
20260504184041 27 130 8.0 19.3 0.00 0.00 0.00 74 1010.5
20260504183541 27 121 9.7 20.9 0.00 0.00 0.00 73 1010.4
20260504182041 27 104 4.8 24.1 0.00 0.00 0.00 73 1010.6
20260504181042 27 128 12.9 20.9 0.00 0.00 0.00 73 1010.5
20260504180541 27 101 8.0 17.7 0.00 0.00 0.00 74 1010.5
20260504180041 27 102 6.4 16.1 0.00 0.00 0.00 74 1010.5
20260504175541 27 124 9.7 20.9 0.00 0.00 0.00 74 1010.6
20260504175041 27 94 9.7 20.9 0.00 0.00 0.00 73 1010.8
20260504174541 27 118 9.7 27.4 0.00 0.00 0.00 74 1010.9
20260504174041 27 146 12.9 27.4 0.00 0.00 0.00 73 1010.9
20260504173541 27 119 9.7 19.3 0.00 0.00 0.00 74 1011.0
20260504173042 27 83 1.6 17.7 0.00 0.00 0.00 74 1011.0
20260504172541 27 84 6.4 17.7 0.00 0.00 0.00 75 1011.1
20260504172041 27 111 6.4 19.3 0.00 0.00 0.00 74 1011.2
20260504171541 27 133 4.8 19.3 0.00 0.00 0.00 75 1011.4
20260504171041 28 103 12.9 17.7 0.00 0.00 0.00 75 1011.2
20260504170541 28 65 6.4 17.7 0.00 0.00 0.00 75 1011.2
20260504150541 28 102 17.7 24.1 0.00 0.00 0.00 74 1012.1
20260504141041 28 120 9.7 22.5 0.00 0.00 0.00 78 1011.8
20260504140540 28 150 19.3 20.9 0.00 0.00 0.00 78 1011.7
20260504130541 29 105 8.0 22.5 0.00 0.00 0.00 69 1011.4
20260504110541 30 128 6.4 25.7 0.00 0.00 0.00 69 1010.8
20260504100541 31 143 3.2 19.3 0.00 0.00 0.00 62 1009.8